Location: Harbor Island
(32.3990°N, 80.4435°W)
Time: 01:46:40
(UTC-05:00)

Daily predictions for brighter satellites

Satellite Brightness Start Highest point End
(mag) Time Altitude Azimuth Time Altitude Azimuth Time Altitude Azimuth
CZ-3C R/B 4.0 03:31:24 34° SE 03:31:24 34° SE 03:52:46 10° E
Cosmos 2278 Rocket 4.5 03:45:10 20° E 03:45:10 20° E 03:47:54 10° ESE
USA 215 3.3 04:31:54 10° NE 04:37:30 62° N 04:37:30 62° N
Cosmos 972 Rocket 4.0 04:54:18 69° SSE 04:54:18 69° SSE 04:58:35 10° SSE
CENTAUR R/B 2.9 04:57:18 45° NNW 04:57:18 45° NNW 05:02:25 10° NNE
Meteor 1-14 Rocket 4.2 04:50:55 10° S 04:56:38 80° E 05:02:16 10° N
CZ-3 R/B 3.7 04:40:40 10° SW 04:56:43 32° S 05:02:05 10° ESE
SL-24 R/B - RUBIN 2 4.2 05:09:04 58° W 05:09:32 60° WSW 05:14:58 10° SSE
Cosmos 2297 4.2 05:06:50 22° N 05:10:27 58° ENE 05:16:00 10° SSE
Thor Agena Rocket 3.3 05:06:10 10° S 05:11:10 67° WSW 05:11:26 66° W
Cosmos 2181 Rocket 3.9 05:12:52 10° N 05:19:16 73° W 05:25:34 10° S
OAO 3 Copernicus 4.2 05:19:39 56° WSW 05:20:46 88° NNW 05:25:52 10° ENE
OAO 2 Rocket 4.4 05:21:30 28° SW 05:21:53 28° SSW 05:26:09 10° SSE
Cosmos 2151 Rocket 3.7 05:17:32 10° S 05:22:03 78° E 05:26:33 10° N
Cosmos 1709 Rocket 4.5 05:16:30 10° SSW 05:23:33 36° NW 05:28:01 10° N
Meteor 1-25 Rocket 4.2 05:17:45 10° S 05:23:35 90° ENE 05:29:27 10° N
Cosmos 1238 Rocket 3.8 05:20:55 10° N 05:25:39 68° E 05:31:24 10° SSE
SL-08 ROCKET BODY 4.3 05:21:21 10° S 05:27:23 87° E 05:33:20 10° N
Cosmos 2278 Rocket 2.5 05:27:06 40° W 05:27:46 42° WSW 05:33:03 10° S
SL-16 R/B 2.4 05:27:56 28° WSW 05:30:25 45° WNW 05:35:52 10° N
Celestis-02/Orion 38 4.5 05:25:49 10° SSE 05:30:56 81° WSW 05:34:22 22° NNW
Timation 1 Rocket 4.4 05:26:09 16° NNW 05:31:00 80° ENE 05:37:00 10° SSE
Tiangong 2 3.3 05:32:51 16° NNE 05:32:51 16° NNE 05:34:03 10° NE
DELTA 2 R/B (1) 3.6 05:30:38 37° NW 05:32:51 71° NNE 05:38:24 10° ESE
Cosmos 1975 Rocket 3.8 05:38:00 32° WSW 05:38:00 32° WSW 05:41:20 10° SSW
Cosmos 1346 Rocket 4.1 05:36:27 10° N 05:40:09 40° E 05:43:50 10° SSE
CZ-4 R/B 4.2 05:38:13 10° NE 05:41:07 20° E 05:43:59 10° SE
Lacrosse 5 2.9 05:37:48 10° SSW 05:42:41 47° ESE 05:47:34 10° NE
Cosmos 1812 2.6 05:39:51 14° N 05:43:07 87° W 05:46:58 10° S
Iridium 2 3.7 05:42:56 10° SSW 05:46:40 56° W 05:50:25 10° N
USA 32 3.9 05:43:25 10° N 05:48:39 75° W 05:53:51 10° S
CSL-04 DEB 4.3 05:44:39 10° NNE 05:48:43 89° WNW 05:52:52 10° SSW
Cosmos 1536 Rocket 3.5 05:49:35 10° N 05:54:03 83° W 05:58:26 10° S
Ariane Rocket 2.9 05:55:03 10° N 06:00:04 72° WNW 06:05:06 10° SSW
Centaur AC-116 4.5 05:58:54 14° WSW 06:01:38 21° SSW 06:03:49 10° SSE
Meteor 1-28 Rocket 3.3 06:03:22 10° SSE 06:07:08 79° ENE 06:10:56 10° N
Okean 1 Rocket 3.1 06:03:12 10° S 06:07:38 89° E 06:12:03 10° N
Cosmos 44 Rocket 3.6 06:03:26 10° SSW 06:08:36 77° ESE 06:13:46 10° NNE
COSMO-SKYMED 1 2.9 06:08:16 10° S 06:12:23 43° W 06:16:32 10° NNW
Nadezhda 3 Rocket 4.3 06:07:41 10° N 06:14:03 74° E 06:20:25 10° S
Gbstr 26 Del rocket 2.9 06:12:20 14° NW 06:16:12 75° SW 06:20:06 10° SE
Okean 1-7 Rocket 4.2 06:12:13 10° N 06:16:33 57° E 06:20:50 10° SSE
USA 129 1.7 06:17:28 10° SSE 06:19:14 65° ENE 06:21:12 10° N
Cosmos 1633 2.5 06:16:49 10° SSW 06:20:26 64° W 06:24:03 10° N
GPS 2-05 Rocket1 3.3 06:19:02 15° WNW 06:21:49 49° N 06:25:21 10° E
Cosmos 2341 Rocket 4.1 06:17:04 10° S 06:23:24 90° E 06:29:43 10° N
Cosmos 921 Rocket 3.4 06:20:37 10° NNW 06:24:56 48° W 06:29:16 10° S
Cosmos 1603 4.1 06:22:24 10° SW 06:27:44 41° WNW 06:33:05 10° N
CSL-04 Debris 4.2 06:22:29 10° N 06:27:51 60° WNW 06:33:13 10° SSW
SL-24 DEB 4.3 06:23:43 10° S 06:28:26 72° W 06:33:14 10° N
Cosmos 962 Rocket 4.5 06:22:46 10° S 06:28:54 82° W 06:35:09 10° N
CSL-04 Rocket 3.9 06:24:22 10° N 06:29:41 48° WNW 06:34:56 10° SW
Cosmos 2369 Rocket 3.4 06:31:40 10° N 06:37:06 43° ENE 06:42:28 10° SE
